{"data":{"norad_id":62246,"intl_designator":"2024-232K","name":"QIANFAN-45","alt_names":[],"object_type":"PAYLOAD","status":"ACTIVE","operator":null,"country":"PRC","launch_date":"2024-12-05","launch_site_code":"TAISC","launch_vehicle":null,"mission":null,"orbit_class":"UNKNOWN","rcs_meters":null,"size_class":null,"mass_kg":null,"dimensions":null,"purposes":[],"wikipedia_slug":null,"has_3d_model":false,"image_url":null,"decayed_at":null,"tle_current":{"epoch":"2026-05-25T04:05:42.716256Z","epoch_age_seconds":67254,"freshness":"FRESH","line1":"1 62246U 24232K   26145.17063329  .00000103  00000+0  13996-3 0  9996","line2":"2 62246  89.0105  24.8021 0016403  80.9246 279.3760 13.51005242121321","mean_motion":13.51005242,"eccentricity":0.0016403,"inclination_deg":89.0105,"raan_deg":24.8021,"arg_perigee_deg":80.9246,"mean_anomaly_deg":279.376,"bstar":0.00013996,"rev_number":12132,"period_min":106.58729923714,"perigee_km":1056.3475017887,"apogee_km":1080.7771435868,"semimajor_km":7446.6993226878,"source":"CELESTRAK","updated_at":"2026-05-25T13:38:02.867541Z"}}}